Regional Weather Roundup
Issued by NWS Charleston, SC

Current Version | Previous Version | Text Only | Print | Product List | Glossary Off
Versions: 1 2 3 4 5 6 7 8 9 10 11 12 13 14 15 16 17 18 19 20 21 22 23 24 25 26 27 28 29 30 31 32 33 34 35 36 37 38 39 40 41 42 43 44 45 46 47 48 49 50

467
ASUS42 KCHS 031027
RWRCHS

REGIONAL WEATHER ROUNDUP
NATIONAL WEATHER SERVICE CHARLESTON SC
500 AM EST SAT DEC 03 2016

NOTE: "FAIR" INDICATES FEW OR NO CLOUDS BELOW 12,000 FEET WITH NO
SIGNIFICANT WEATHER AND/OR OBSTRUCTIONS TO VISIBILITY.

NOT ALL STATIONS ARE QUALITY CONTROLLED. USE DATA WITH CAUTION...
ESPECIALLY DEWPOINT OBSERVATIONS.

SCZ027-030-031-034>040-042>050-031100-
...SOUTHEAST SOUTH CAROLINA...

CITY           SKY/WX    TMP DP  RH WIND       PRES   REMARKS
N CHARLESTON   PTCLDY    39  35  86 W3        30.22R
WATERFRONT PRK   N/A     48  39  71 VRB2      30.19R
MOUNT PLEASANT FAIR      37  37 100 CALM      30.22R
JOHNS ISLAND   FAIR      41  37  87 CALM      30.22R
PINOPOLIS        N/A     54  43  66 N8        30.12S
MONCKS CORNER  FAIR      34  34 100 CALM      30.22R
SUMMERVILLE    FAIR      36  36 100 CALM      30.24R
BEAUFORT MCAS  PTCLDY    42  39  89 CALM      30.21R
BEAUFORT ARPT  FAIR      45  41  87 CALM      30.21S
HILTON HEAD IS PTCLDY    43  43 100 CALM      30.21F
WALTERBORO     MOSUNNY   36 N/A N/A CALM      30.22R
ALLENDALE      FAIR      41  37  87 NW3       30.22R

...SOUTHERN MIDLANDS AND PEE DEE...

CITY           SKY/WX    TMP DP  RH WIND       PRES   REMARKS
GEORGETOWN     NOT AVBL
KINGSTREE      FAIR      32  30  93 CALM      30.22R
ORANGEBURG     PTCLDY    37  36  96 CALM      30.22
BARNWELL       NOT AVBL
AIKEN          FAIR      34  32  93 CALM      30.25S
MANNING        NOT AVBL
COLUMBIA       PTCLDY    37  34  89 SW3       30.21R
SUMTER         CLOUDY    40  33  75 NE7       30.19R WCI  35
FLORENCE       PTCLDY    42  33  70 N9        30.22
MYRTLE BEACH   CLOUDY    43  32  65 N10       30.22S
N MYRTLE BEACH CLEAR     41  35  79 N9        30.20

$$

GAZ063-065-086>088-099>101-113>116-118-119-134>141-150-031100-
...SOUTHEAST GEORGIA...

CITY           SKY/WX    TMP DP  RH WIND       PRES   REMARKS
SAVANNAH ARPT  MOCLDY    45  38  76 W3        30.21
HUNTER AAF     MOCLDY    45  41  85 CALM      30.18S
FORT STEWART   MOCLDY    44  36  74 CALM      30.20R
STATESBORO     PTCLDY    42  41  95 CALM      30.24R
SYLVANIA       NOT AVBL
CLAXTON        FAIR     N/A N/A N/A CALM      30.23R

...CSRA...CENTRAL AND FAR SOUTHEAST GEORGIA...

CITY           SKY/WX    TMP DP  RH WIND       PRES   REMARKS
THOMSON        PTCLDY    38  37  97 CALM      30.27R
AUGUSTA-BUSH   NOT AVBL
AUGUSTA-DANIEL NOT AVBL
SWAINSBORO     NOT AVBL
VIDALIA        CLOUDY    46  39  76 N5        30.22F
EASTMAN        FAIR      43  33  68 CALM      30.26R
HAZLEHURST     FAIR      48  38  68 CALM      30.22S
ALMA           CLOUDY    45  36  70 CALM      30.21
WAYCROSS       PTCLDY    49  40  69 N7        30.21S
JESUP          FAIR      50  39  66 N3        30.21F
BAXLEY         FAIR      45  41  87 N3        30.22S
BRUNSWICK      NOT AVBL
SAINT SIMONS   PTCLDY    50  39  66 NW7       30.21

$$

SCZ027-028-034-036>038-045-046-048>050-GAZ119-141-031100-
...LAKE AND SUPPLEMENTAL COASTAL OBSERVATIONS...

STATION/POSITION TIME  TEMP    WIND        PRES    WAVE   SWELL
                       AIR SEA DIR/SP/G            HT/PER HT/PER/DIR
                 (UTC) (F)     (DEG/KT/KT) (MB)    (FT/S) (FT/S/D)
WINYAH BAY       0945   44     330/  5     1022.0S
LAKE MURRAY      0930   45     310/  1/  4 1022.4S
ACE BASIN NERRS  0945   42        CALM     1023.0R
FORT PULASKI     1000   49 62  320/  7/  8 1022.7
SAPELO ISLAND    1000   49     340/  4     1023.0

$$

ANZ835-935-AMZ111-154-330-350-352-354-370-450-454-472-031100-
...C-MAN AND BUOY OBSERVATIONS...

STATION/POSITION TIME  TEMP    WIND        PRES    WAVE   SWELL
                       AIR SEA DIR/SP/G            HT/PER HT/PER/DIR
                 (UTC) (F)     (DEG/KT/KT) (MB)    (FT/S) (FT/S/D)
BUOY 41004       0950   61 75  340/ 16/ 19 1021.2R   3/ 4   2/140/ 8
BUOY 41008       0950   61 64   10/ 12/ 14 1022.1S   2/ 8   2/140/ 8
FOLLY BEACH CMAN 1000   46     300/  4/  5 1023.5R
CAPERS NEARSHORE 0908   54 62  340/ 10/ 12 1022.1R
FRIPP NEARSHORE  1008   54 63  340/  8/ 12 1022.4R


STATION/POSITION TIME  TEMP    WIND        PRES    WAVE   SWELL
                       AIR SEA DIR/SP/G            HT/PER HT/PER/DIR
                 (UTC) (F)     (DEG/KT/KT) (MB)    (FT/S) (FT/S/D)
5E ST. MARYS GA  1000      66                N/A     3/ 5
FRYING PAN BUOY  1000   56 74  360/ 21/ 25 1021.8
BUOY 41025       0950   52 75  360/ 23/ 27 1020.2R   5/ 5   2/100/ 8
CAPE LOOKOUT NC  1000   45     350/ 17/ 20 1021.6R
BUOY 41002       0950   66 74  350/ 16/ 19 1019.0R   4/ 5   2/160/ 8
BUOY 41010       NOT AVBL
ST AUGUSTINE FL  1000   63 66   30/ 17/ 19 1022.6F


$$




USA.gov is the U.S. government's official web portal to all federal, state and local government web resources and services.